カタログに戻る

FENGYUN 1C DEB

運用中PO
NORAD 31931·DEBRIS·🇨🇳 China

打ち上げ May 10, 1999 から Taiyuan Satellite Launch Center

Loading…

次のパス (今後24時間)

TLE

最新Source: Space-Track

元期: Sep 14, 2026, 10:18 UTC

1 31931U 99025CMG 26257.42971165  .00000075  00000-0  11190-3 0  9996
2 31931  97.8126 151.9956 0420828 272.8512  82.4548 13.42975019689228

AllMySatでFENGYUN 1C DEBをリアルタイム追跡

Download on the App Store